DELTA 1 DEB

Satellite information

Favourite Embed

Satellite Type and Status

DEBRISIN ORBIT

Key statistics

Satellite DELTA 1 DEB at a glance.

Uptime

19453

Days in orbit

Revolutions

≈ 14.6

Per day

Orbit

SSO

Sun Synchronous Orbit

Inclination

98.6

Latest

Satellite identification and parameters

Extended collection of information and parameters for DELTA 1 DEB.

Object identification

Identified? True

Debris? True

Object name: DELTA 1 DEB

International designator: 1972-058JM

Object number (NORAD): 19834

Object ID (CCSDS): 19834

Country: UNITED STATES OF AMERICA (US)

Current information (Y/N): Y

RCS size: SMALL

Orbital parameters

Period: 98.456 minutes

Inclination: 98.5747 deg

SMA: 7063.005 km

Apoapsis: 775.762 km

Periapsis: 593.979 km

RAAN: 69.8733 deg

Eccentricy: 0.0128687

Argument of periapsis: 58.6169 deg

Mean anomaly: 302.7546 deg

Mean motion: 14.62576038 rev/day

Mean motion (dot): 0.00001521 rev/day2

B* drag term: 0.00027612 1/REarth

Two-line elements (TLE)

Creation date: Oct. 25, 2025, 2:36 p.m.

Reference frame: TEME

Reference center: EARTH

Epoch: Oct. 25, 2025, 7:45 a.m. UTC

TLE line 0: 0 DELTA 1 DEB

TLE line 1: 1 19834U 72058JM 25298.32311863 .00001521 00000-0 27612-3 0 9990

TLE line 2: 2 19834 98.5747 69.8733 0128687 58.6169 302.7546 14.62576038905698

Live tracking on map

Real-time ground track for satellite DELTA 1 DEB.

In-orbit conjunctions

A list of the most updated potential collisions computed for object DELTA 1 DEB.

Target Orbit TCA Probability of collision Miss distance Type
COSMOS 2251 DEB LEO 2025-05-27 07:05:10 0.0001039556 748.0 (m) DEBRIS
COSMOS 1275 DEB LEO 2025-04-10 04:15:11 0.0002282532 47.0 (m) DEBRIS

Associated space launch

Earth observation satellite

DELTA 1 DEB was lifted into orbit during the mission ‘Delta 0900 | Landsat 1’, on board a Delta 0900 space rocket.

The launch took place on July 23, 1972, 6:06 p.m. from Space Launch Complex 2W.

For more information about the launch, click the button.

Launch to space Delta 0900 | Landsat 1
Delta 0900 | Landsat 1

Agency: N/A

Status: Launch Successful

Launch date: July 23, 1972, 6:06 p.m. UTC

Rocket: Delta 0900

Launch pad: Space Launch Complex 2W

Location: Vandenberg SFB, CA, USA

...

Latest news about this satellite

There are no fresh news available about this satellite. Check back as we update our databases every day.


Newsletter sign-up

Weekly statistics, charts and insights to help you stay on top of the space industry.